Hourly Weather Abakonovo

Today, 16 January, Saturday

Time Temperature Precipitation Wind Pressure Humidity
00:00 -23°C° 0 mm 2 mps 740 mmHg 95%
01:00 -23°C° 0 mm 2 mps 740 mmHg 96%
02:00 -23°C° 0 mm 2 mps 740 mmHg 97%
03:00 -23°C° 0.1 mm 2 mps 740 mmHg 96%
04:00 -23°C° 0.1 mm 2 mps 739 mmHg 96%
05:00 -24°C° 0.1 mm 2 mps 739 mmHg 95%
06:00 -24°C° 0 mm 2 mps 739 mmHg 95%
07:00 -24°C° 0 mm 2 mps 740 mmHg 95%
08:00 -24°C° 0 mm 2 mps 740 mmHg 96%
09:00 -23°C° 0 mm 2 mps 740 mmHg 94%
10:00 -21°C° 0 mm 2 mps 740 mmHg 92%
11:00 -21°C° 0 mm 2 mps 740 mmHg 90%
12:00 -20°C° 0 mm 2 mps 740 mmHg 89%
13:00 -19°C° 0 mm 2 mps 740 mmHg 89%
14:00 -18°C° 0 mm 2 mps 740 mmHg 89%
15:00 -18°C° 0 mm 2 mps 740 mmHg 90%
16:00 -19°C° 0 mm 3 mps 740 mmHg 91%
17:00 -19°C° 0 mm 3 mps 739 mmHg 91%
18:00 -19°C° 0.1 mm 3 mps 740 mmHg 91%
19:00 -21°C° 0.1 mm 3 mps 740 mmHg 92%
20:00 -21°C° 0.1 mm 3 mps 740 mmHg 92%
21:00 -21°C° 0 mm 3 mps 740 mmHg 92%
22:00 -21°C° 0 mm 3 mps 741 mmHg 93%
23:00 -20°C° 0 mm 2 mps 741 mmHg 93%

Tomorrow, 17 January, Sunday

Time Temperature Precipitation Wind Pressure Humidity
00:00 -20°C° 0 mm 2 mps 741 mmHg 94%
01:00 -21°C° 0 mm 2 mps 741 mmHg 96%
02:00 -21°C° 0 mm 2 mps 741 mmHg 97%
03:00 -23°C° 0 mm 2 mps 741 mmHg 97%
04:00 -23°C° 0 mm 2 mps 741 mmHg 97%
05:00 -23°C° 0 mm 2 mps 741 mmHg 97%
06:00 -24°C° 0 mm 2 mps 742 mmHg 96%
07:00 -24°C° 0 mm 2 mps 742 mmHg 95%
08:00 -21°C° 0 mm 1 mps 742 mmHg 95%
09:00 -20°C° 0 mm 1 mps 743 mmHg 91%
10:00 -18°C° 0 mm 1 mps 743 mmHg 88%
11:00 -17°C° 0 mm 1 mps 744 mmHg 84%
12:00 -16°C° 0 mm 1 mps 744 mmHg 84%
13:00 -16°C° 0 mm 1 mps 744 mmHg 85%
14:00 -15°C° 0 mm 1 mps 744 mmHg 85%
15:00 -16°C° 0 mm 1 mps 744 mmHg 88%
16:00 -17°C° 0 mm 1 mps 744 mmHg 91%
17:00 -18°C° 0 mm 1 mps 744 mmHg 94%
18:00 -18°C° 0 mm 1 mps 744 mmHg 94%
19:00 -18°C° 0 mm 1 mps 744 mmHg 95%
20:00 -18°C° 0 mm 1 mps 745 mmHg 96%
21:00 -18°C° 0 mm 1 mps 745 mmHg 96%
22:00 -18°C° 0 mm 1 mps 744 mmHg 97%
23:00 -18°C° 0 mm 1 mps 744 mmHg 97%

Day after tomorrow, 18 January, Monday

Time Temperature Precipitation Wind Pressure Humidity
00:00 -18°C° 0 mm 1 mps 744 mmHg 97%
01:00 -18°C° 0 mm 1 mps 744 mmHg 97%
02:00 -18°C° 0 mm 1 mps 744 mmHg 97%
03:00 -18°C° 0 mm 1 mps 744 mmHg 97%
04:00 -18°C° 0 mm 1 mps 744 mmHg 98%
05:00 -17°C° 0 mm 1 mps 744 mmHg 98%
06:00 -17°C° 0.1 mm 1 mps 744 mmHg 97%
07:00 -16°C° 0.1 mm 1 mps 744 mmHg 97%
08:00 -16°C° 0.1 mm 1 mps 744 mmHg 96%
09:00 -15°C° 0 mm 1 mps 744 mmHg 95%
10:00 -14°C° 0 mm 1 mps 744 mmHg 93%
11:00 -13°C° 0 mm 1 mps 744 mmHg 92%
12:00 -12°C° 0 mm 1 mps 744 mmHg 92%
13:00 -12°C° 0 mm 1 mps 744 mmHg 92%
14:00 -11°C° 0 mm 1 mps 744 mmHg 92%
15:00 -12°C° 0 mm 1 mps 744 mmHg 93%
16:00 -12°C° 0 mm 1 mps 744 mmHg 95%
17:00 -13°C° 0 mm 1 mps 744 mmHg 96%
18:00 -13°C° 0.1 mm 1 mps 744 mmHg 96%
19:00 -12°C° 0.1 mm 1 mps 744 mmHg 96%
20:00 -12°C° 0.1 mm 1 mps 744 mmHg 96%
21:00 -13°C° 0 mm 1 mps 744 mmHg 96%
22:00 -13°C° 0 mm 0 mps 744 mmHg 96%
23:00 -13°C° 0 mm 0 mps 744 mmHg 96%

19 January, Tuesday

Time Temperature Precipitation Wind Pressure Humidity
00:00 -13°C° 0 mm 0 mps 744 mmHg 96%
01:00 -12°C° 0 mm 0 mps 744 mmHg 96%
02:00 -12°C° 0 mm 0 mps 744 mmHg 96%
03:00 -12°C° 0 mm 0 mps 744 mmHg 96%
04:00 -13°C° 0 mm 1 mps 743 mmHg 96%
05:00 -13°C° 0 mm 1 mps 743 mmHg 96%
06:00 -13°C° 0 mm 0 mps 743 mmHg 97%
07:00 -14°C° 0 mm 0 mps 744 mmHg 97%
08:00 -14°C° 0 mm 0 mps 744 mmHg 97%
09:00 -13°C° 0 mm 0 mps 744 mmHg 96%
10:00 -12°C° 0 mm 0 mps 744 mmHg 94%
11:00 -11°C° 0 mm 0 mps 744 mmHg 93%
12:00 -11°C° 0 mm 0 mps 744 mmHg 92%
13:00 -10°C° 0 mm 0 mps 744 mmHg 92%
14:00 -10°C° 0 mm 0 mps 743 mmHg 92%
15:00 -11°C° 0 mm 1 mps 743 mmHg 94%
16:00 -12°C° 0 mm 1 mps 744 mmHg 95%
17:00 -13°C° 0 mm 1 mps 744 mmHg 97%
18:00 -14°C° 0 mm 1 mps 744 mmHg 97%
19:00 -14°C° 0 mm 1 mps 744 mmHg 97%
20:00 -14°C° 0 mm 1 mps 744 mmHg 97%
21:00 -15°C° 0 mm 1 mps 744 mmHg 97%
22:00 -15°C° 0 mm 1 mps 744 mmHg 97%
23:00 -15°C° 0 mm 1 mps 744 mmHg 97%

20 January, Wednesday

Time Temperature Precipitation Wind Pressure Humidity
00:00 -15°C° 0 mm 1 mps 744 mmHg 97%
01:00 -15°C° 0 mm 1 mps 745 mmHg 97%
02:00 -16°C° 0 mm 1 mps 745 mmHg 97%
03:00 -16°C° 0 mm 1 mps 745 mmHg 97%
04:00 -16°C° 0 mm 1 mps 745 mmHg 97%
05:00 -16°C° 0 mm 1 mps 744 mmHg 97%
06:00 -18°C° 0 mm 2 mps 744 mmHg 97%
07:00 -18°C° 0 mm 2 mps 744 mmHg 97%
08:00 -19°C° 0 mm 2 mps 744 mmHg 96%
09:00 -17°C° 0 mm 2 mps 744 mmHg 95%
10:00 -16°C° 0 mm 2 mps 744 mmHg 93%
11:00 -16°C° 0 mm 3 mps 744 mmHg 91%
12:00 -15°C° 0 mm 3 mps 744 mmHg 91%
13:00 -14°C° 0 mm 3 mps 744 mmHg 91%
14:00 -14°C° 0 mm 3 mps 744 mmHg 90%
15:00 -14°C° 0 mm 3 mps 743 mmHg 91%
16:00 -15°C° 0 mm 3 mps 743 mmHg 92%
17:00 -16°C° 0 mm 3 mps 743 mmHg 93%
18:00 -17°C° 0 mm 4 mps 743 mmHg 92%
19:00 -17°C° 0 mm 4 mps 742 mmHg 91%
20:00 -17°C° 0 mm 4 mps 742 mmHg 91%
21:00 -16°C° 0 mm 4 mps 742 mmHg 91%
22:00 -15°C° 0 mm 4 mps 741 mmHg 92%
23:00 -15°C° 0 mm 5 mps 741 mmHg 92%

21 January, Thursday

Time Temperature Precipitation Wind Pressure Humidity
00:00 -14°C° 0.2 mm 5 mps 740 mmHg 92%
01:00 -13°C° 0.2 mm 5 mps 740 mmHg 92%
02:00 -12°C° 0.2 mm 5 mps 739 mmHg 93%
03:00 -12°C° 0.4 mm 5 mps 739 mmHg 93%
04:00 -12°C° 0.4 mm 5 mps 738 mmHg 93%
05:00 -11°C° 0.4 mm 5 mps 738 mmHg 93%
06:00 -11°C° 0.2 mm 5 mps 738 mmHg 93%
07:00 -10°C° 0.2 mm 4 mps 737 mmHg 93%
08:00 -9°C° 0.2 mm 4 mps 737 mmHg 93%
09:00 -9°C° 0.2 mm 4 mps 737 mmHg 93%
10:00 -8°C° 0.2 mm 4 mps 737 mmHg 93%
11:00 -7°C° 0.2 mm 4 mps 737 mmHg 93%
12:00 -5°C° 0.1 mm 4 mps 737 mmHg 94%
13:00 -4°C° 0.1 mm 4 mps 737 mmHg 94%
14:00 -3°C° 0.1 mm 4 mps 736 mmHg 95%
15:00 -2°C° 0.1 mm 4 mps 736 mmHg 95%
16:00 -2°C° 0.1 mm 4 mps 736 mmHg 96%
17:00 -1°C° 0.1 mm 4 mps 736 mmHg 96%
18:00 -1°C° 0.1 mm 4 mps 736 mmHg 96%
19:00 -2°C° 0.1 mm 4 mps 736 mmHg 95%
20:00 -2°C° 0.1 mm 4 mps 736 mmHg 95%
21:00 -2°C° 0 mm 4 mps 736 mmHg 95%
22:00 -2°C° 0 mm 4 mps 736 mmHg 95%
23:00 -2°C° 0 mm 4 mps 736 mmHg 95%
Show more